Regional Weather Roundup
Issued by NWS Wakefield, VA

Home | Current Version | Previous Version | Text Only | Print | Product List | Glossary On
Versions: 1 2 3 4 5 6 7 8 9 10 11 12 13 14 15 16 17 18 19 20 21 22 23 24 25 26 27 28 29 30 31 32 33 34 35 36 37 38 39 40 41 42 43 44 45 46 47 48 49 50
000
ASUS41 KAKQ 220814
RWRAKQ

REGIONAL WEATHER ROUNDUP
NATIONAL WEATHER SERVICE WAKEFIELD VA
400 AM EDT FRI MAY 22 2015

Note: "fair" indicates few or no clouds below 12,000 feet with no
significant weather and/or obstructions to visibility. * = Denotes
station may not report precipitation (e.g., rain,snow,etc.),
thunder or fog.

VAZ042-051-052>054-056-220900-
NORTHERN VIRGINIA

CITY           SKY/WX    TMP DP  RH WIND       PRES   REMARKS
WASH NATIONAL  PTCLDY    54  45  71 W7        29.99R
DULLES         CLEAR     51  44  77 NW7       30.00R
FORT BELVOIR   CLEAR     48  46  93 CALM      30.00R
QUANTICO       CLEAR     52  45  77 NW7       30.02R
FREDERICKSBRG* CLEAR     54  50  88 W3        30.01R
STAFFORD*      CLEAR     47  45  92 CALM      30.05R
WARRENTON      CLEAR     51  47  83 NW5       30.01R
CULPEPER*      CLEAR     51  43  73 NW6       30.02R
MANASSAS*      NOT AVBL
LEESBURG*      CLEAR     52  46  82 NW12      30.01S
WINCHESTER     CLEAR     48  37  66 E5        30.03R
FRONT ROYAL*   FAIR      48  41  76 W3        30.03R
LURAY*         FAIR      54  43  66 NW7G17    30.04S
$$

VAZ048-049-060>072-079>083-220900-
CENTRAL AND SOUTH CENTRAL VIRGINIA

CITY           SKY/WX    TMP DP  RH WIND       PRES   REMARKS
RICHMOND       PTCLDY    53  50  89 N6        30.01R
CHESTERFIELD*  NOT AVBL
PETERSBURG*    CLEAR     55  52  92 NW7       30.02R
HANOVER        PTCLDY    48  47  96 SE3       30.03R FOG
TAPPAHANNOCK*  CLEAR     51  47  86 W3        30.00R
QUINTON*       FAIR      51  50  95 NW8       30.00R
CHARLOTTSVILLE CLEAR     51  43  74 NW10      30.02R
GORDONSVILLE*  FAIR      47  45  94 CALM      30.02R
ORANGE*        CLEAR     52  45  76 W8        30.04R
LOUISA*        FOG       45  43  93 CALM      30.01R VSB 3/4
BUMPASS*       FAIR      48  47  99 CALM      30.02R
FARMVILLE*     CLEAR     52  52 100 CALM      30.03R
CREWE*         FAIR      53  49  89 NW8       30.02R
FORT PICKETT*  FAIR      52  51  97 NW3       30.02R
CHASE CITY*    FAIR      55  55 100 CALM      30.03R
CLARKSVILLE*   FAIR      52  50  93 NW3       30.02R
SOUTH HILL*    PTCLDY    53  52  97 CALM      30.08R
LAWRENCEVILLE* PTSUNNY   52  52 100 W5        30.02R
EMPORIA*       PTCLDY    52  52 100 W3        30.04R
$$

VAZ088>098-220900-
SOUTHEAST VIRGINIA

CITY           SKY/WX    TMP DP  RH WIND       PRES   REMARKS
NORFOLK        MOCLDY    56  50  80 VRB6      29.98R
VIRGINIA BEACH MOCLDY    58  52  80 NW17      29.96R
NORFOLK NAVAL  MOCLDY    59  51  75 NW9       30.00R
WEST POINT*    CLEAR     55  51  87 NW8       29.99R
SALUDA*        PTSUNNY   55  51  87 NW10G18   29.96R
NEWPORT NEWS   CLEAR     56  50  80 NW7       29.99R
LANGLEY AFB    CLEAR     53  51  92 NW8       29.97R
FORT EUSTIS    MOCLDY    55  55 100 NW12      29.97R
WILLIAMSBURG*  CLEAR     55  54  94 NW7       30.00R
HR EXEC AP*    CLOUDY    54  48  82 W5        30.01R
FRANKLIN*      PTCLDY    52  51  97 CALM      30.02R
WAKEFIELD      CLOUDY    55  52  89 VRB5      30.01R
$$

VAZ020-022-025-037-045-220900-
WEST CENTRAL AND SOUTHWEST VIRGINIA

CITY           SKY/WX    TMP DP  RH WIND       PRES   REMARKS
STAUNTON*      CLEAR     46  42  83 CALM      30.07R
WAYNESBORO*    FAIR      48  40  73 W3        30.05S
HOT SPRINGS VA CLOUDY    41  40  97 NW17      30.05R
LYNCHBURG      PTCLDY    52  41  66 VRB5      30.07R
DANVILLE       CLEAR     54  44  69 NW6       30.07R
SOUTH BOSTON*  FAIR      52  46  80 W5        30.04R
MARTINSVILLE   PTCLDY    48  46  91 CALM      30.10R
ROANOKE        MOCLDY    52  40  63 N8        30.10R
BLACKSBURG     CLOUDY    48  41  77 NW8       30.14R
DUBLIN*        MOCLDY    49  42  76 N3        30.13R
MARION*        CLOUDY    48  40  75 W12       30.16R
HILLSVILLE*    PTCLDY    46  41  82 NW18G28   30.09R
RICHLANDS*     PTSUNNY   43  31  60 NW6       30.16S HAZE
WISE*          CLOUDY    45  45 100 CALM      30.18S FOG
ABINGDON*      PTCLDY    49  43  81 CALM      30.16S
$$

MDZ021>025-VAZ099-100-220900-
SOUTHERN MARYLAND AND THE DELMARVA PENINSULA

CITY           SKY/WX    TMP DP  RH WIND       PRES   REMARKS
PATUXENT RIVER PTCLDY    52  49  89 W10       29.96R
BAY BRIDGE APT   N/A    N/A N/A N/A NW16      29.96R
LEONARDTOWN    CLEAR     50  46  87 W3        29.98R
DOVER          CLEAR     50  50 100 W12       29.88S
GEORGETOWN     CLEAR     49  47  93 SW3       29.93R
EASTON         CLEAR     52  52 100 NW7       29.98R
CAMBRIDGE      PTCLDY    55  50  82 NW9       29.94R
SALISBURY      CLOUDY    50  49  96 NW6       29.93R
OCEAN CITY     CLEAR     49  47  93 NW7       29.92R
WALLOPS ISLAND MOCLDY    50  50 100 NW7       29.94R
ACCOMACK*      CLOUDY    55  52  88 NW13G20   29.94R
$$

NCZ012>017-030>032-220900-
NORTH CENTRAL AND EASTERN NORTH CAROLINA

CITY           SKY/WX    TMP DP  RH WIND       PRES   REMARKS
ROANOKE RAPIDS PTSUNNY   54  52  94 CALM      30.02S
RALEIGH        PTCLDY    56  52  86 CALM      30.03R
ELIZABETH CITY CLOUDY    57  52  83 NW9       29.99R
AHOSKIE*       PTCLDY    54  52  91 CALM      30.01S
EDENTON*       CLOUDY    56  52  86 N6        30.00R
CURRITUCK*     PTCLDY    57  52  85 W3        29.99R
KILL DEVIL HLS CLOUDY    59  54  83 NW8       29.95R
MANTEO         CLOUDY    58  53  81 N14G21    29.97R
CAPE HATTERAS  CLOUDY    61  55  81 VRB6      29.97R
TARBORO*       CLOUDY    57  53  85 NW8       30.03R
GOLDSBORO      CLOUDY    60  55  85 N5        30.00R
WASHINGTON     CLOUDY   N/A N/A N/A CALM      30.01R
GREENVILLE     CLOUDY    57  54  88 N5        30.03R
NEW BERN       CLOUDY    60  55  83 N7        30.01S
WILMINGTON     MOCLDY    61  58  90 N8        30.00R
$$

VAZ048-220900-
ELSEWHERE

CITY           SKY/WX    TMP DP  RH WIND       PRES   REMARKS
HARRISBURG PA  MOCLDY    54  43  66 W12       29.95R
BALTIMORE      PTCLDY    49  46  90 W6        29.96R
ANNAPOLIS      CLEAR     52  47  83 W8        29.96R
ANDREWS AFB    CLEAR     52  47  85 W12       29.98R
PHILADELPHIA   PTCLDY    53  46  77 NW8       29.90S
HENDERSON NC   PTCLDY    53  51  94 CALM      30.03R
GREENSBORO     PTCLDY    53  46  77 N5        30.06R
ROCKY MOUNT    CLOUDY    58  55  90 N5        30.02R
$$

VAZ100-220900-
MARINE

STATION/POSITION TIME  TEMP    WIND        PRES    WAVE   SWELL
                       AIR SEA DIR/SP/G            HT/PER HT/PER
                 (UTC) (F)     (DEG/KT/KT) (MB)    (FT/S) (FT/S)
BRANDYWINE LGT   0700      62  320/ 11/ 14 1012.5F
CAPE MAY NJ      0700      64  310/  3/ 11 1011.7F
LEWES DE         0700      63  310/ 12/ 15 1012.5S
15NM E FENWICK I 0750   54 58              1011.8R   3/ 3
OCEAN-CITY-INLET 0700      60  340/ 10/ 12 1012.5R
WACHAPREAGUE VA  0700      64  320/  3/  7 1013.4R
THOMAS POINT MD  0800   54 65  310/ 17/ 19 1014.9R
GOOSES REEF MD   0800   55 65  320/ 17/ 23 1015.4R   0
BISHOPS HEAD MD  0700      60  330/  8/ 13 1013.2F
PINEY POINT MD   0700          340/ 17/ 19   N/A
CAMBRIDGE MD     0700      69  320/ 16/ 20 1013.4F
LEWISETTA VA     0700      68              1014.1F
RAPPAHANNOCK LGT 0700          330/ 22/ 27 1014.2R
STINGRAY PT      0800   56 69  320/ 12/ 14 1014.2R   1/ 2
YORK RVR RNG VA  0700          320/ 14/ 17 1013.8R
YORKTOWN VA      0700      70  320/ 15/ 18 1014.3R
JAMESTOWN VA     0800   56 74  320/ 14/ 17 1014.5R
DOMINION TERM VA 0700           70/  2/  5 1014.4R
KIPTOPEKE VA     0700      72  350/ 24/ 29   N/A
CHES BAY BRIDGE  0700      65  320/ 20/ 24 1013.5R
CAPE HENRY VA    0700          330/ 23/ 27 1012.5R
CHESAPEAKE LGHT  0700   58     340/ 24/ 26 1013.7S
WILLOUBY STN VA  0700          330/ 13/ 16 1014.8S
CAPE HENRY BUOY  0728      62                N/A     5/ 7
1ST LANDING BUOY 0800      63              1014.5R
CAPE CHARLES BUO 0726      63                N/A     4/ 7   2/ 7
OFFSHORE WE BUOY 0711      61                N/A     6/ 7   2/11
64NM E OF VA BCH 0750   58 61  340/ 25/ 31 1011.7R   7/ 7   2/12
DUCK PIER NC     0700      66  340/ 18/ 24 1012.7R
44100 DUCK FRF   0724      60                N/A     6/ 6
44056 DUCK FRF   0711      65                N/A     5/ 7
OREGON INLET NC  0700      68  330/ 13/ 19 1013.5R
HATTERAS NC      0700      74  330/ 15/ 17 1013.3R
DIAMOND SHLS NC  0750   65 76  350/ 17/ 21 1014.0R   4/ 6   2/ 9
CAPE LOOKOUT NC  0800   62     340/ 11/ 15 1015.4R
$$


USA.gov is the U.S. government's official web portal to all federal, state and local government web resources and services.